"Time","Temp","Dewpoint","Humidity","Pressure","Direction","Speed","Gust","Precip","PrecipRate"
"00:04:56","45.3","41.4","86","30.06","113","0","0","0.00","0.00"
"00:09:59","45.3","41.4","86","30.06","113","0","0","0.00","0.00"
"00:14:56","45.2","41.6","87","30.06","113","0","0","0.00","0.00"
"00:19:59","45.3","41.7","87","30.06","113","0","0","0.00","0.00"
"00:24:56","45.2","41.6","87","30.06","113","0","0","0.00","0.00"
"00:29:58","45.2","41.8","87.5","30.06","113","0","0","0.00","0.00"
"00:34:56","45.3","42","88","30.06","113","0","0","0.00","0.00"
"00:39:57","45.5","42.2","88","30.06","113","0","0","0.00","0.00"
"00:44:57","45.7","42.4","88.3","30.06","113","0","0","0.00","0.00"
"00:49:56","45.8","42.4","88","30.06","113","0","0","0.00","0.00"
"00:54:56","45.8","42.4","88","30.06","113","0","0","0.00","0.00"
"00:59:59","45.9","42.5","88","30.06","113","0","0","0.00","0.00"
"01:04:56","45.9","42.5","88","30.05","113","0","0","0.00","0.00"
"01:09:57","46.1","42.7","88","30.05","113","0","0","0.00","0.00"
"01:14:55","46.2","42.8","88","30.05","113","0","0","0.00","0.00"
"01:19:58","46.3","42.9","88","30.05","113","0","0","0.00","0.00"
"01:24:59","46.5","43.1","88","30.05","113","0","0","0.00","0.00"
"01:29:59","46.7","43.3","88","30.05","113","0.2","2.3","0.00","0.00"
"01:34:58","46.9","43.3","87.4","30.04","113","0.2","2.3","0.00","0.00"
"01:39:56","47","43.3","87.2","30.04","113","0.9","2.3","0.00","0.00"
"01:44:56","47.1","43.4","87.2","30.05","113","0.5","2.3","0.00","0.00"
"01:49:57","47.1","43.4","87","30.05","113","0.6","2.3","0.00","0.00"
"01:54:57","47.3","43.6","87","30.05","113","0.9","3.5","0.00","0.00"
"01:59:59","47.3","43.6","87","30.06","113","0","1.2","0.00","0.00"
"02:04:56","47.4","43.5","86.5","30.06","113","0","0","0.00","0.00"
"02:09:57","47.5","43.5","86","30.06","113","0","2","0.00","0.00"
"02:14:58","47.8","43.7","85.9","30.06","113","0.2","2.3","0.00","0.00"
"02:19:58","48","44","85.8","30.05","113","0.4","2.3","0.00","0.00"
"02:24:58","48.3","44","85.3","30.05","113","0.1","1.2","0.00","0.00"
"02:29:59","48.4","44.3","85.5","30.05","113","0.1","1.2","0.00","0.00"
"02:34:56","48.5","44.5","86","30.05","113","0.1","1.2","0.00","0.00"
"02:39:58","48.5","44.4","85.9","30.05","113","0","1.2","0.00","0.00"
"02:44:56","48.4","44.1","85","30.05","113","0","0","0.00","0.00"
"02:49:57","48.3","44","85","30.05","113","0","0","0.00","0.00"
"02:54:56","48.3","44","85","30.05","113","0.2","1.2","0.00","0.00"
"02:59:57","48.3","44.1","85.3","30.06","113","0.6","1.2","0.00","0.00"
"03:04:59","48.5","44.5","86","30.06","113","1","2.3","0.00","0.00"
"03:09:59","48.6","44.9","87","30.06","113","0.6","2.3","0.00","0.00"
"03:14:56","48.7","44.9","86.7","30.07","113","0.1","1.2","0.00","0.00"
"03:19:58","48.8","44.8","86","30.07","113","0.1","1.2","0.00","0.00"
"03:24:58","48.9","45","86.2","30.07","113","0.1","1.2","0.00","0.00"
"03:29:59","49.1","45.3","86.9","30.07","113","0","1.2","0.00","0.00"
"03:34:59","49.1","45.4","87","30.06","113","0","0","0.00","0.00"
"03:39:56","49.1","45.1","86","30.06","113","0.1","1.2","0.00","0.00"
"03:44:58","49.2","45.5","86.9","30.06","113","0.8","2.3","0.00","0.00"
"03:49:59","49.3","45.3","86","30.06","113","0","1.2","0.00","0.00"
"03:54:57","49.4","45.4","86","30.06","113","0","0","0.00","0.00"
"03:59:56","49.7","45.8","86.5","30.07","113","0","0","0.00","0.00"
"04:04:58","49.8","45.8","85.8","30.07","113","0","1.2","0.00","0.00"
"04:09:59","50.1","45.8","85","30.07","113","0","0","0.00","0.00"
"04:14:55","50.3","46.4","86.3","30.07","113","0.3","1.2","0.00","0.00"
"04:19:59","50.3","46.4","86.4","30.07","113","0","1.2","0.00","0.00"
"04:24:56","50.3","46.1","85.3","30.07","113","0","0","0.00","0.00"
"04:29:57","50.4","46.2","85.2","30.07","113","0","0","0.00","0.00"
"04:34:57","50.5","46.3","85.4","30.07","113","0.1","1","0.00","0.00"
"04:39:58","50.5","46.6","86.3","30.07","113","0.1","1.2","0.00","0.00"
"04:44:58","50.5","46.8","87","30.08","113","0.2","1.2","0.00","0.00"
"04:49:57","50.5","47","87.5","30.08","113","0","0","0.00","0.00"
"04:54:59","50.5","47.1","88","30.08","113","0","0","0.00","0.00"
"04:59:56","50.5","46.9","87.5","30.08","113","0","0","0.00","0.00"
"05:04:59","50.5","47","87.8","30.07","113","0","1.2","0.00","0.00"
"05:09:56","50.6","47.4","88.8","30.07","113","0.2","2","0.00","0.00"
"05:14:58","50.6","47.3","88.4","30.08","113","0.6","2.3","0.00","0.00"
"05:19:56","50.6","47.4","88.5","30.08","113","0.2","2.3","0.00","0.00"
"05:24:59","50.7","47.2","87.7","30.08","113","0.1","2.3","0.00","0.00"
"05:29:58","50.7","47.2","87.6","30.09","113","0.1","2.3","0.00","0.00"
"05:34:58","50.7","47.3","87.9","30.09","113","0.5","2.3","0.00","0.00"
"05:39:59","50.9","46.7","85.7","30.09","113","0.6","2.3","0.00","0.00"
"05:44:56","52.1","46.1","80.1","30.10","108","0.8","3.5","0.00","0.00"
"05:49:55","53.5","46.1","75.9","30.10","104","0.2","3.5","0.00","0.00"
"05:54:56","54.4","46.6","74.9","30.10","90","0.6","3.5","0.00","0.00"
"05:59:59","55.1","46.7","73.4","30.10","72","0.7","3.5","0.00","0.00"
"06:04:56","55.7","46.9","72.3","30.10","101","0.4","2.3","0.00","0.00"
"06:09:58","55.9","46.9","71.5","30.10","102","0.2","1.2","0.00","0.00"
"06:14:59","56","46.4","70.3","30.11","87","0.5","4","0.00","0.00"
"06:19:58","56.6","46.5","68.8","30.11","45","0.3","2.3","0.00","0.00"
"06:24:58","56.8","47","69.7","30.11","45","0.7","2.3","0.00","0.00"
"06:29:58","56.6","46.6","69.2","30.12","45","0.7","2.3","0.00","0.00"
"06:34:58","56.5","46.7","69.6","30.12","20","0.7","3","0.00","0.00"
"06:39:56","56.2","46.4","69.7","30.12","355","0.6","3.5","0.00","0.00"
"06:44:56","55.9","46.2","69.8","30.12","348","0.4","2.3","0.00","0.00"
"06:49:58","55.7","45.6","68.8","30.12","260","1.3","4","0.00","0.00"
"06:54:59","55.8","45.6","68.6","30.12","227","0.2","2.3","0.00","0.00"
"06:59:59","55.8","45.5","68","30.13","227","0.2","1.2","0.00","0.00"
"07:04:57","55.9","45.8","68.6","30.13","227","0.2","1.2","0.00","0.00"
"07:09:58","55.7","45.6","68.8","30.13","227","0.4","2.3","0.00","0.00"
"07:14:58","55.4","45.7","69.8","30.13","227","0.1","1.2","0.00","0.00"
"07:19:59","54.9","45.5","70.4","30.13","227","0","0","0.00","0.00"
"07:24:57","54.6","45.2","70.5","30.13","227","0.4","2.3","0.00","0.00"
"07:29:59","54.5","45.6","71.8","30.14","227","0.1","2.3","0.00","0.00"
"07:34:56","54.5","46","73.2","30.14","227","1","3.5","0.00","0.00"
"07:39:57","54.8","45.9","71.7","30.14","229","1.3","3.5","0.00","0.00"
"07:44:53","55.9","46.2","69.9","30.14","293","2.3","5","0.00","0.00"
"07:49:59","56.7","46.4","68.3","30.14","316","3.4","5","0.00","0.00"
"07:54:59","57","46.5","68","30.14","332","2.6","4","0.00","0.00"
"07:59:57","57.4","46.8","67.6","30.15","330","1.4","3.5","0.00","0.00"
"08:04:59","58.3","46.9","65.8","30.15","330","1.5","3.5","0.00","0.00"
"08:09:59","59.3","47.3","64.7","30.15","344","1.2","5","0.00","0.00"
"08:14:57","60.2","47.3","62.4","30.16","323","1.7","5","0.00","0.00"
"08:19:57","61.1","47.8","61.6","30.16","313","0.6","3.5","0.00","0.00"
"08:24:57","61.8","48.1","60.7","30.16","325","1.4","4","0.00","0.00"
"08:29:57","62.4","48.1","59.4","30.16","292","1.3","5","0.00","0.00"
"08:34:56","62.8","48.3","59.1","30.16","268","1.6","5","0.00","0.00"
"08:39:58","63.1","48.2","58.4","30.16","239","1.8","6","0.00","0.00"
"08:44:55","63.3","48.4","58.2","30.16","223","1.8","6","0.00","0.00"
"08:49:58","63.7","48.2","57.1","30.16","248","1.5","6","0.00","0.00"
"08:54:58","64.1","48.4","56.7","30.16","215","1.3","3.5","0.00","0.00"
"08:59:58","64.6","48.4","55.7","30.16","200","0.8","3.5","0.00","0.00"
"09:04:59","65","48.6","55.4","30.16","226","1.8","5","0.00","0.00"
"09:09:56","65.3","48.4","54.4","30.16","8","0.6","3.5","0.00","0.00"
"09:14:57","65.8","48.8","54.2","30.16","1","1.7","6","0.00","0.00"
"09:19:57","65.9","48.3","53.1","30.16","309","2.9","10","0.00","0.00"
"09:24:56","65.7","48.4","53.6","30.16","263","3.3","7","0.00","0.00"
"09:29:59","65.6","48.5","53.9","30.16","308","1.8","8","0.00","0.00"
"09:34:59","65.8","48.8","54.3","30.16","238","2.4","7","0.00","0.00"
"09:39:57","65.9","48.7","53.9","30.16","244","2.4","6","0.00","0.00"
"09:44:57","66","48.8","53.8","30.17","196","2.1","5","0.00","0.00"
"09:49:57","66.4","49","53.4","30.17","206","1.8","5","0.00","0.00"
"09:54:58","66.6","48.3","51.9","30.17","292","3.5","9","0.00","0.00"
"09:59:57","66.5","48.5","52.4","30.17","320","4","11","0.00","0.00"
"10:04:59","66.3","48.6","53","30.17","329","4.7","14","0.00","0.00"
"10:09:59","66.3","48.6","52.9","30.17","322","4.1","10.4","0.00","0.00"
"10:14:59","66.2","48.4","52.6","30.17","306","5.3","10.4","0.00","0.00"
"10:19:58","66.2","48.7","53.2","30.16","317","4.5","10","0.00","0.00"
"10:24:58","66.4","49.4","54.3","30.16","324","4.5","15","0.00","0.00"
"10:29:59","66.7","48.9","52.9","30.17","329","5.1","13","0.00","0.00"
"10:34:58","66.6","48.9","52.9","30.17","315","3.8","10","0.00","0.00"
"10:39:59","66.7","49","53.1","30.17","295","3.7","10.4","0.00","0.00"
"10:44:57","67","49.9","54.2","30.17","306","3.6","6","0.00","0.00"
"10:49:56","67.3","49.6","52.9","30.16","313","2.3","6","0.00","0.00"
"10:54:59","67.7","50.6","54.3","30.16","288","2.3","5","0.00","0.00"
"10:59:57","68","50.3","53.2","30.16","264","3.6","6","0.00","0.00"
"11:04:54","68.1","50","52.3","30.16","301","3.8","9","0.00","0.00"
"11:09:58","68.2","49.6","51.4","30.16","334","5.4","11.5","0.00","0.00"
"11:14:58","68.3","50.8","53.7","30.16","286","4.4","10","0.00","0.00"
"11:19:58","68.5","50.8","53","30.15","285","3.2","9.2","0.00","0.00"
"11:24:56","68.8","50.5","52.1","30.15","319","3.2","7","0.00","0.00"
"11:29:59","68.8","50.3","51.6","30.15","319","3.8","11","0.00","0.00"
"11:34:56","68.7","50.2","51.7","30.15","327","5","11.5","0.00","0.00"
"11:39:58","68.7","49.7","50.7","30.15","318","5.2","10.4","0.00","0.00"
"11:44:57","68.6","50.2","51.7","30.15","336","3.2","10.4","0.00","0.00"
"11:49:57","68.9","50.6","52.1","30.15","339","3.7","10.4","0.00","0.00"
"11:54:59","69.2","50.4","51.3","30.15","348","3.9","10.4","0.00","0.00"
"11:59:58","69.3","50.8","51.7","30.15","295","2.9","9.2","0.00","0.00"
"12:04:36","69.7","51.5","52.5","30.15","324","1.5","8","0.00","0.00"
"12:09:56","70","51.2","51.2","30.15","315","2.3","9","0.00","0.00"
"12:14:59","70.1","50.6","50","30.15","346","3.6","9.2","0.00","0.00"
"12:19:56","69.9","50.4","50","30.13","336","3.1","8.1","0.00","0.00"
"12:24:59","69.8","50.6","50.4","30.13","325","3.2","12","0.00","0.00"
"12:29:56","70.1","50.9","50.6","30.14","326","3.1","9","0.00","0.00"
"12:34:57","70.2","51.7","52","30.14","37","1.9","5.8","0.00","0.00"
"12:39:58","70.1","50.6","49.9","30.14","268","2.6","7","0.00","0.00"
"12:44:57","69.8","50.4","50","30.14","288","2.1","4","0.00","0.00"
"12:49:57","70.1","51.8","52.4","30.13","236","1.4","7","0.00","0.00"
"12:54:58","70.5","50.5","49.1","30.13","330","2.6","7","0.00","0.00"
"12:59:58","70.8","50.9","49.6","30.13","318","1.9","5","0.00","0.00"
"13:04:58","71.1","51.6","50.2","30.13","275","1.7","5","0.00","0.00"
"13:09:59","71.3","51.5","49.6","30.13","341","2.1","7","0.00","0.00"
"13:14:56","71.4","51.1","48.8","30.13","291","1.9","6.9","0.00","0.00"
"13:19:59","71.6","51.5","49.2","30.13","355","1.4","4.6","0.00","0.00"
"13:24:59","72","50.8","47.3","30.13","275","2","5","0.00","0.00"
"13:29:58","72.1","50.8","47","30.13","319","2.9","7","0.00","0.00"
"13:34:59","72","51.1","47.9","30.13","322","1.6","4","0.00","0.00"
"13:39:58","71.9","50.5","46.9","30.13","329","2.1","6","0.00","0.00"
"13:44:57","71.7","50.2","46.6","30.13","288","2.1","5","0.00","0.00"
"13:49:58","71.6","50.5","47.4","30.13","241","1.5","5","0.00","0.00"
"13:54:53","71.7","49.9","46.2","30.13","310","2.1","4","0.00","0.00"
"13:59:56","71.5","49.5","45.8","30.13","239","1.7","4","0.00","0.00"
"14:04:58","71.6","51.2","48.6","30.13","333","1.4","5","0.00","0.00"
"14:09:59","71.9","51.4","48.4","30.13","349","1.1","4","0.00","0.00"
"14:14:55","72","51.7","48.9","30.13","21","0.7","3.5","0.00","0.00"
"14:19:58","72.1","51.1","47.6","30.12","352","1.6","7","0.00","0.00"
"14:24:57","72.2","51.2","47.6","30.12","344","1.1","4","0.00","0.00"
"14:29:58","72.4","50.7","46.5","30.12","344","0.4","3.5","0.00","0.00"
"14:34:57","72.5","50.8","46.6","30.12","351","1.6","9.2","0.00","0.00"
"14:39:59","72.4","50.7","46.5","30.12","349","0.8","9.2","0.00","0.00"
"14:44:58","72.5","50.2","45.5","30.12","337","2.7","6","0.00","0.00"
"14:49:58","72.4","50.3","45.7","30.12","358","1.9","5","0.00","0.00"
"14:54:57","72.5","50.3","45.7","30.12","7","1.9","6","0.00","0.00"
"14:59:56","72.3","50.3","45.7","30.13","349","1.3","5","0.00","0.00"
"15:04:57","72.3","50","45.3","30.13","331","2","4","0.00","0.00"
"15:09:57","72.1","50","45.7","30.13","339","1.8","4","0.00","0.00"
"15:14:59","72.1","50.4","46.5","30.13","340","1.5","4","0.00","0.00"
"15:19:58","72.1","50.2","46.1","30.13","340","0.5","2.3","0.00","0.00"
"15:24:56","72.3","50.9","47","30.13","335","0.6","4","0.00","0.00"
"15:29:59","72.3","50.2","45.6","30.14","331","0.8","3.5","0.00","0.00"
"15:34:59","72.4","50.1","45.4","30.14","329","1.9","4","0.00","0.00"
"15:39:56","72.1","50.5","46.5","30.14","348","1.9","5","0.00","0.00"
"15:44:58","72","50.1","46.2","30.15","346","1.4","4","0.00","0.00"
"15:49:58","71.6","50.2","46.8","30.15","343","2.3","5","0.00","0.00"
"15:54:56","71.1","50.3","47.8","30.15","345","1.7","6","0.00","0.00"
"15:59:56","70.6","49.9","47.9","30.15","346","1.6","3.5","0.00","0.00"
"16:04:57","70.3","49.6","47.9","30.15","346","1.6","4","0.00","0.00"
"16:09:58","70","49.4","48","30.15","342","1.4","4","0.00","0.00"
"16:14:59","69.8","49.4","48.4","30.15","343","0.4","3.5","0.00","0.00"
"16:19:58","69.5","49","48.1","30.15","343","0.1","1.2","0.00","0.00"
"16:24:57","69.3","49","48.5","30.15","343","0","1.2","0.00","0.00"
"16:29:56","69","48.7","48.4","30.16","343","0.1","1.2","0.00","0.00"
"16:34:59","68.6","48.7","49","30.16","343","0","1.2","0.00","0.00"
"16:39:59","68.4","48.5","49","30.16","343","0","1","0.00","0.00"
"16:44:59","68","48.1","49","30.16","343","0","1.2","0.00","0.00"
"16:49:56","67.5","48.2","50","30.16","343","0","0","0.00","0.00"
"16:54:56","67","48.4","51.1","30.16","343","0","0","0.00","0.00"
"16:59:56","66.5","48.3","51.9","30.16","343","0.1","1.2","0.00","0.00"
"17:04:57","66","47.9","52.2","30.16","343","0","1.2","0.00","0.00"
"17:09:58","65.3","48.2","54","30.16","343","0","0","0.00","0.00"
"17:14:59","64.5","48.2","55.4","30.16","343","0","0","0.00","0.00"
"17:19:58","63.6","48.2","57.1","30.16","343","0.1","1.2","0.00","0.00"
"17:24:57","62.5","48.1","59.3","30.16","343","0.1","1.2","0.00","0.00"
"17:29:57","61.6","48","60.9","30.16","343","0","0","0.00","0.00"
"17:34:56","60.9","48.2","63","30.16","343","0","0","0.00","0.00"
"17:39:57","60.3","48.1","64","30.16","343","0","0","0.00","0.00"
"17:44:57","59.8","47.5","63.6","30.17","343","0","0","0.00","0.00"
"17:49:59","59.5","47","63.2","30.17","343","0.2","1.2","0.00","0.00"
"17:54:56","59.3","47.4","64.8","30.17","343","0","1.2","0.00","0.00"
"17:59:59","58.7","47.8","67","30.17","343","0","0","0.00","0.00"
"18:04:56","57.9","47.3","67.8","30.17","343","0","0","0.00","0.00"
"18:09:56","57.1","47.2","69.4","30.17","343","0.3","2.3","0.00","0.00"
"18:14:56","56.4","47.1","70.9","30.18","343","1","2.3","0.00","0.00"
"18:19:56","55.8","47.1","72.4","30.18","343","0.4","1.2","0.00","0.00"
"18:24:56","55.5","47.3","73.9","30.18","343","0","1.2","0.00","0.00"
"18:29:56","55.2","47.3","74.5","30.18","343","0","0","0.00","0.00"
"18:34:56","54.9","47.1","75","30.18","343","0","0","0.00","0.00"
"18:39:57","54.6","47","75.6","30.18","343","0.6","2.3","0.00","0.00"
"18:44:56","54.2","46.8","76","30.18","343","0.3","2.3","0.00","0.00"
"18:49:58","53.8","46.6","76.5","30.18","343","0","1.2","0.00","0.00"
"18:54:58","53.5","46.6","77.4","30.18","343","0","0","0.00","0.00"
"18:59:56","53.2","46.5","78","30.18","343","0.3","1.2","0.00","0.00"
"19:04:56","53.1","46.4","78","30.18","343","0","1.2","0.00","0.00"
"19:09:57","52.9","46.3","78.1","30.18","343","0.2","1.2","0.00","0.00"
"19:14:58","52.5","46.4","79.6","30.18","343","0.9","2.3","0.00","0.00"
"19:19:56","52.4","46.4","80","30.18","343","0","2.3","0.00","0.00"
"19:24:58","52.3","46.2","79.6","30.18","343","0","0","0.00","0.00"
"19:29:58","52","46","79.9","30.18","343","0","0","0.00","0.00"
"19:34:57","51.7","45.8","80.2","30.18","343","0","0","0.00","0.00"
"19:39:58","51.4","45.8","81","30.18","343","0","0","0.00","0.00"
"19:44:57","51","45.5","81.3","30.19","343","0.1","1.2","0.00","0.00"
"19:49:58","50.7","45.6","82.6","30.19","343","0.6","2","0.00","0.00"
"19:54:58","50.6","45.6","83","30.19","343","0","1.2","0.00","0.00"
"19:59:57","50.5","45.5","83","30.19","343","0","0","0.00","0.00"
"20:04:57","50.2","45.2","83.1","30.19","343","0","0","0.00","0.00"
"20:09:58","49.8","45.2","84","30.19","343","0.1","1.2","0.00","0.00"
"20:14:57","49.5","45","84.2","30.19","343","0","1","0.00","0.00"
"20:19:58","49.3","45","85","30.19","343","0","0","0.00","0.00"
"20:24:56","49.2","45","85.3","30.19","343","0.3","2.3","0.00","0.00"
"20:29:59","49.2","45.2","86","30.20","343","0.1","1.2","0.00","0.00"
"20:34:59","49.2","45.2","86","30.20","343","0","0","0.00","0.00"
"20:39:59","49","45","86","30.20","343","0.8","2.3","0.00","0.00"
"20:44:58","48.9","44.9","86","30.20","343","0.9","2.3","0.00","0.00"
"20:49:56","48.9","45","86.4","30.20","343","0.1","1.2","0.00","0.00"
"20:54:59","48.9","44.9","86","30.20","343","0.2","1.2","0.00","0.00"
"20:59:58","48.7","44.7","86","30.20","343","0.2","2","0.00","0.00"
"21:04:59","48.5","44.5","86","30.20","343","0","1.2","0.00","0.00"
"21:09:59","48.3","44.3","86","30.20","343","0","0","0.00","0.00"
"21:14:59","48.1","44.2","86.4","30.21","343","0","0","0.00","0.00"
"21:19:59","47.8","44.1","86.8","30.21","343","0","0","0.00","0.00"
"21:24:58","47.6","43.9","87","30.21","343","0","0","0.00","0.00"
"21:29:57","47.5","43.8","87.1","30.21","343","0","0","0.00","0.00"
"21:34:56","47.3","43.7","87.4","30.21","343","0.2","1.2","0.00","0.00"
"21:39:57","47.2","43.8","88","30.21","343","0.2","1.2","0.00","0.00"
"21:44:57","47","43.6","88","30.22","343","0.3","1.2","0.00","0.00"
"21:49:59","46.8","43.4","88","30.22","343","0","0","0.00","0.00"
"21:54:56","46.7","43.5","88.4","30.22","343","0","0","0.00","0.00"
"21:59:58","46.6","43.4","88.6","30.22","343","0.1","1.2","0.00","0.00"
"22:04:59","46.5","43.4","89","30.22","343","0","0","0.00","0.00"
"22:09:59","46.4","43.3","89","30.22","343","0.1","1.2","0.00","0.00"
"22:14:56","46.3","43.2","89","30.22","343","0","0","0.00","0.00"
"22:19:59","46.1","43","89","30.22","343","0.1","1.2","0.00","0.00"
"22:24:57","46","43.1","89.7","30.22","343","0","0","0.00","0.00"
"22:29:58","45.9","43.1","90","30.23","343","0","1","0.00","0.00"
"22:34:56","45.8","43","90","30.23","343","0.2","1.2","0.00","0.00"
"22:39:56","45.8","43.1","90.2","30.23","343","0","1.2","0.00","0.00"
"22:44:57","45.8","43","90","30.23","343","0","0","0.00","0.00"
"22:49:56","45.7","42.9","90","30.22","343","0","0","0.00","0.00"
"22:54:59","45.5","42.7","90","30.22","343","0","0","0.00","0.00"
"22:59:58","45.3","42.5","90","30.23","343","0","0","0.00","0.00"
"23:04:58","45.2","42.4","90.2","30.23","343","0","0","0.00","0.00"
"23:09:59","45.2","42.7","90.9","30.23","343","0.2","1.2","0.00","0.00"
"23:14:56","45.2","42.7","91","30.23","343","0.6","1.2","0.00","0.00"
"23:19:58","45.3","42.8","91","30.23","343","0","1.2","0.00","0.00"
"23:24:56","45.1","42.6","90.8","30.23","343","0","0","0.00","0.00"
"23:29:56","44.9","42.1","90","30.23","343","0","1","0.00","0.00"
"23:34:58","44.7","42.2","91","30.23","343","0","1.2","0.00","0.00"
"23:39:58","44.5","42","91","30.23","343","0.1","1.2","0.00","0.00"
"23:44:56","44.5","42.3","91.8","30.23","343","0.3","1.2","0.00","0.00"
"23:49:58","44.6","42.4","92","30.23","343","0","1.2","0.00","0.00"
"23:54:56","44.6","42.4","92","30.23","343","0","0","0.00","0.00"
"23:59:59","44.5","42.3","92","30.24","343","0","0","0.00","0.00"
